Sultan Mahmud, Malaysia

6:59 PM +08 on January 18, 2018 (GMT +0800)
Sultan Mahmud

Weather History for WMKN - February, 2014

Change the Weather History Date:

Sunday, February 9, 2014

  Actual Average Record
Temperature  
Mean Temperature 80 °F -  
Max Temperature 86 °F - - ()
Min Temperature 73 °F - - ()
Cooling Degree Days 14    
Growing Degree Days 30 (Base 50)    
Moisture  
Dew Point 74 °F    
Average Humidity 84    
Maximum Humidity 100    
Minimum Humidity 70    
Precipitation  
Precipitation 0.00 in - - ()
Sea Level Pressure  
Sea Level Pressure 29.77 in    
Wind  
Wind Speed 3 mph ()    
Max Wind Speed 10 mph    
Max Gust Speed -    
Visibility 6.1 miles    
Events      
T = Trace of Precipitation, MM = Missing Value Source: Averaged Metar Reports

Daily Weather History Graph

Daily Weather History Graph

Search for Another Location

Airport or City:

Trip Planner

Search our weather history database for the weather conditions in past years. The results will help you decide how hot, cold, wet, or windy it might be!

Date:

Astronomy

Feb. 09, 2014 Rise Set
Actual Time 7:24 AM +08 7:19 PM +08
Civil Twilight 7:02 AM +08 7:41 PM +08
Nautical Twilight 6:37 AM +08 8:05 PM +08
Astronomical Twilight 6:12 AM +08 8:30 PM +08
Moon 2:53 PM +08 (2/9) 2:43 AM +08 (2/9)
Length of Visible Light 12h 38m
Length of Day
11h 55m
Waxing Gibbous, 72% of the Moon is Illuminated
Feb 9
Waxing Gibbous
Feb 15
Full
Feb 23
Last Quarter
Mar 1
New
Mar 8
First Quarter

Hourly Weather History & Observations

Time (+08) Temp. Heat Index Dew Point Humidity Pressure Visibility Wind Dir Wind Speed Gust Speed Precip Events Conditions
12:00 AM 78.8 °F - 75.2 °F 89% 29.80 in 6.2 mi WNW 1.2 mph - N/A   Mostly Cloudy
1:00 AM 77.0 °F - 75.2 °F 94% 29.77 in 6.2 mi SW 1.2 mph - N/A   Mostly Cloudy
2:00 AM 77.0 °F - 73.4 °F 89% 29.77 in 6.2 mi WSW 1.2 mph - N/A   Mostly Cloudy
3:00 AM 75.2 °F - 73.4 °F 94% 29.74 in 6.2 mi WSW 2.3 mph - N/A   Mostly Cloudy
4:00 AM 75.2 °F - 73.4 °F 94% 29.74 in 6.2 mi SW 3.5 mph - N/A   Mostly Cloudy
5:00 AM 75.2 °F - 73.4 °F 94% 29.74 in 6.2 mi SW 1.2 mph - N/A   Mostly Cloudy
6:00 AM 73.4 °F - 73.4 °F 100% 29.74 in 6.2 mi WSW 1.2 mph - N/A   Mostly Cloudy
7:00 AM 73.4 °F - 73.4 °F 100% 29.77 in 5.6 mi SW 2.3 mph - N/A   Mostly Cloudy
8:00 AM 75.2 °F - 73.4 °F 94% 29.77 in 4.3 mi WSW 2.3 mph - N/A   Mostly Cloudy
9:00 AM 77.0 °F - 73.4 °F 89% 29.80 in 6.2 mi WSW 2.3 mph - N/A   Mostly Cloudy
10:00 AM 80.6 °F 86.2 °F 75.2 °F 84% 29.80 in 6.2 mi North 3.5 mph - N/A   Mostly Cloudy
11:00 AM 82.4 °F 89.5 °F 75.2 °F 79% 29.80 in 6.2 mi North 6.9 mph - N/A   Mostly Cloudy
12:00 PM 84.2 °F 92.3 °F 75.2 °F 74% 29.80 in 6.2 mi North 9.2 mph - N/A   Mostly Cloudy
1:00 PM 86.0 °F 95.1 °F 75.2 °F 70% 29.77 in 6.2 mi NNE 8.1 mph - N/A   Mostly Cloudy
2:00 PM 86.0 °F 95.1 °F 75.2 °F 70% 29.77 in 6.2 mi North 10.4 mph - N/A   Mostly Cloudy
3:00 PM 86.0 °F 95.1 °F 75.2 °F 70% 29.74 in 6.2 mi North 10.4 mph - N/A   Mostly Cloudy
4:00 PM 84.2 °F 92.3 °F 75.2 °F 74% 29.71 in 6.2 mi North 9.2 mph - N/A   Mostly Cloudy
5:00 PM 84.2 °F 92.3 °F 75.2 °F 74% 29.71 in 6.2 mi North 10.4 mph - N/A   Mostly Cloudy
6:00 PM 84.2 °F 90.9 °F 73.4 °F 70% 29.74 in 6.2 mi North 9.2 mph - N/A   Mostly Cloudy
7:00 PM 82.4 °F 88.2 °F 73.4 °F 74% 29.74 in 6.2 mi NNE 8.1 mph - N/A   Mostly Cloudy
8:00 PM 80.6 °F 85.4 °F 73.4 °F 79% 29.77 in 6.2 mi North 5.8 mph - N/A   Mostly Cloudy
9:00 PM 80.6 °F 85.4 °F 73.4 °F 79% 29.77 in 6.2 mi North 4.6 mph - N/A   Mostly Cloudy
10:00 PM 78.8 °F - 73.4 °F 83% 29.80 in 6.2 mi WNW 2.3 mph - N/A   Mostly Cloudy
11:00 PM 77.0 °F - 73.4 °F 89% 29.80 in 6.2 mi SW 1.2 mph - N/A   Mostly Cloudy